Weather History for Moses Lake, WA

Change the Weather History Date:

Friday, April 15, 2011

  Actual Average Record
Temperature  
Mean Temperature 42 °F 50 °F  
Max Temperature 47 °F 63 °F 76 °F (1984)
Min Temperature 37 °F 37 °F 25 °F (2005)
Degree Days  
Heating Degree Days 23 15  
Month to date heating degree days 302 248  
Since 1 July heating degree days 5600 5420  
Cooling Degree Days 0 0  
Month to date cooling degree days 0 0  
Year to date cooling degree days 0 0  
Moisture  
Dew Point 37 °F    
Average Humidity 71    
Maximum Humidity 92    
Minimum Humidity 49    
Precipitation  
Precipitation 0.07 in 0.02 in 0.07 in (2011)
Month to date precipitation 0.26 0.36  
Year to date precipitation 2.02 3.08  
Sea Level Pressure  
Sea Level Pressure 30.12 in    
Wind  
Wind Speed 3 mph (South)    
Max Wind Speed 14 mph    
Max Gust Speed 18 mph    
Visibility 10 miles    
Events Rain    
T = Trace of Precipitation, MM = Missing Value Source: NWS Daily Summary

Daily Weather History Graph

Daily Weather History Graph

Search for Another Location

Airport:

Trip Planner

Search our weather history database for the weather conditions in past years. The results will help you decide how hot, cold, wet, or windy it might be!

Date:

Astronomy

Apr. 15, 2011 Rise Set
Actual Time 6:09 AM PDT 7:46 PM PDT
Civil Twilight 5:37 AM PDT 8:18 PM PDT
Nautical Twilight 4:58 AM PDT 8:57 PM PDT
Astronomical Twilight 4:16 AM PDT 9:40 PM PDT
Moon 5:12 PM PDT (4/15) 4:30 AM PDT (4/15)
Length of Visible Light 14h 40m
Length of Day
13h 36m
Waxing Gibbous, 92% of the Moon is Illuminated
Apr 15
Waxing Gibbous
Apr 17
Full
Apr 24
Last Quarter
May 2
New
May 10
First Quarter

Hourly Weather History & Observations

Time (PDT) Temp. Windchill Dew Point Humidity Pressure Visibility Wind Dir Wind Speed Gust Speed Precip Events Conditions
12:52 AM 39.0 °F 32.8 °F 30.0 °F 70% 30.16 in 10.0 mi WSW 9.2 mph - N/A   Clear
1:52 AM 39.0 °F 32.8 °F 28.0 °F 65% 30.32 in 10.0 mi SSW 9.2 mph - N/A   Clear
2:52 AM 39.2 °F 33.6 °F 28.4 °F 65% 30.15 in 10.0 mi SW 8.1 mph - N/A   Clear
3:52 AM 39.0 °F 33.4 °F 28.0 °F 65% 30.32 in 10.0 mi SW 8.1 mph - N/A   Partly Cloudy
4:52 AM 37.9 °F 31.5 °F 27.0 °F 65% 30.30 in 10.0 mi SW 9.2 mph - N/A   Scattered Clouds
5:52 AM 37.9 °F - 26.1 °F 62% 30.31 in 10.0 mi Calm Calm - N/A   Partly Cloudy
6:52 AM 37.0 °F 33.3 °F 28.0 °F 70% 30.17 in 10.0 mi SSE 4.6 mph - N/A   Overcast
7:52 AM 42.1 °F 40.2 °F 28.0 °F 58% 30.30 in 10.0 mi Variable 3.5 mph - N/A   Overcast
8:52 AM 43.0 °F 39.5 °F 28.9 °F 58% 30.30 in 10.0 mi SW 5.8 mph - N/A   Overcast
9:52 AM 44.1 °F 40.8 °F 28.9 °F 55% 30.15 in 10.0 mi SSW 5.8 mph - N/A   Mostly Cloudy
10:52 AM 46.0 °F 44.8 °F 28.9 °F 51% 30.14 in 10.0 mi South 3.5 mph - N/A   Clear
11:52 AM 46.0 °F 43.1 °F 36.0 °F 68% 30.14 in 10.0 mi SSE 5.8 mph - 0.00 in Rain Light Rain
12:39 PM 44.6 °F 42.2 °F 37.4 °F 76% 30.12 in 9.0 mi South 4.6 mph - 0.01 in Rain Light Rain
12:52 PM 44.1 °F 42.5 °F 39.0 °F 82% 30.14 in 9.0 mi SSE 3.5 mph - 0.01 in Rain Light Rain
1:40 PM 44.6 °F - 39.2 °F 81% 30.10 in 7.0 mi Calm Calm - 0.02 in Rain Light Rain
1:52 PM 45.0 °F 43.5 °F 39.9 °F 82% 30.12 in 9.0 mi East 3.5 mph - 0.02 in Rain Light Rain
2:39 PM 46.4 °F 45.2 °F 41.0 °F 81% 30.08 in 8.0 mi East 3.5 mph - 0.01 in Rain Light Rain
2:52 PM 46.0 °F - 42.1 °F 86% 30.09 in 7.0 mi Calm Calm - 0.02 in Rain Light Rain
3:26 PM 46.4 °F 45.2 °F 42.8 °F 87% 30.06 in 8.0 mi NNE 3.5 mph - 0.01 in Rain Light Rain
3:52 PM 46.9 °F - 43.0 °F 86% 30.07 in 9.0 mi ENE 3.5 mph - 0.01 in   Overcast
4:52 PM 46.0 °F - 42.1 °F 86% 30.05 in 8.0 mi Calm Calm - 0.01 in Rain Light Rain
5:05 PM 46.4 °F - 42.8 °F 87% 30.02 in 10.0 mi Calm Calm - 0.00 in   Overcast
5:28 PM 46.4 °F - 42.8 °F 87% 30.02 in 10.0 mi Calm Calm - 0.00 in   Overcast
5:52 PM 46.9 °F - 42.1 °F 83% 30.04 in 10.0 mi South 4.6 mph - 0.00 in   Overcast
6:00 PM 46.4 °F 43.5 °F 41.0 °F 81% 30.01 in 10.0 mi SSW 5.8 mph - N/A   Overcast
6:52 PM 46.0 °F - 42.1 °F 86% 30.01 in 10.0 mi Calm Calm - N/A   Overcast
7:30 PM 46.4 °F - 42.8 °F 87% 29.99 in 10.0 mi Calm Calm - N/A   Overcast
7:52 PM 46.0 °F - 42.1 °F 86% 30.01 in 10.0 mi Calm Calm - N/A   Overcast
8:52 PM 45.0 °F - 43.0 °F 93% 30.01 in 10.0 mi Calm Calm - N/A   Overcast
9:52 PM 45.0 °F - 42.1 °F 90% 30.00 in 10.0 mi Calm Calm - N/A   Overcast
9:59 PM 44.6 °F - 42.8 °F 93% 29.98 in 10.0 mi Calm Calm - N/A   Overcast
10:52 PM 45.0 °F - 43.0 °F 93% 30.14 in 10.0 mi Calm Calm - N/A   Overcast
11:52 PM 45.0 °F - 43.0 °F 93% 30.13 in 8.0 mi Calm Calm - N/A   Overcast